Time,TemperatureF,DewpointF,PressureIn,WindDirection,WindDirectionDegrees,WindSpeedMPH,WindSpeedGustMPH,Humidity,HourlyPrecipIn,Conditions,Clouds,dailyrainin,SoftwareType,DateUTC
2013-03-04 00:18:00,35.6,25.7,30.29,North,-999,2.2,6.0,67,0.00,,,0.00,pywws,2013-03-04 00:18:00,
2013-03-04 00:23:00,35.4,25.9,30.29,West,270,3.1,6.0,68,0.00,,,0.00,pywws,2013-03-04 00:23:00,
2013-03-04 00:28:00,35.4,25.9,30.29,SE,135,1.6,3.8,68,0.00,,,0.00,pywws,2013-03-04 00:28:00,
2013-03-04 00:33:00,35.4,25.9,30.30,North,0,3.1,6.9,68,0.00,,,0.00,pywws,2013-03-04 00:33:00,
2013-03-04 00:38:00,35.4,25.9,30.29,North,0,3.1,6.9,68,0.00,,,0.00,pywws,2013-03-04 00:38:00,
2013-03-04 00:43:00,35.4,25.6,30.29,NE,45,1.6,4.5,67,0.00,,,0.00,pywws,2013-03-04 00:43:00,
2013-03-04 00:48:00,35.2,25.4,30.29,SE,135,2.2,5.4,67,0.00,,,0.00,pywws,2013-03-04 00:48:00,
2013-03-04 00:53:00,35.4,25.6,30.29,West,270,2.2,3.8,67,0.00,,,0.00,pywws,2013-03-04 00:53:00,
2013-03-04 00:58:00,35.6,25.7,30.29,West,270,2.2,4.5,67,0.00,,,0.00,pywws,2013-03-04 00:58:00,
2013-03-04 01:03:00,35.2,25.4,30.29,NE,45,3.8,7.6,67,0.00,,,0.00,pywws,2013-03-04 01:03:00,
2013-03-04 01:08:00,32.0,22.3,30.29,North,-999,3.8,6.9,67,0.00,,,0.00,pywws,2013-03-04 01:08:00,
2013-03-04 01:13:00,35.2,25.4,30.29,SW,225,3.1,8.3,67,0.00,,,0.00,pywws,2013-03-04 01:13:00,
2013-03-04 01:18:00,35.4,25.9,30.29,West,270,2.2,5.4,68,0.00,,,0.00,pywws,2013-03-04 01:18:00,
2013-03-04 01:23:00,35.2,25.8,30.29,West,270,3.8,6.9,68,0.00,,,0.00,pywws,2013-03-04 01:23:00,
2013-03-04 01:28:00,35.4,25.6,30.29,NNW,338,5.4,11.4,67,0.00,,,0.00,pywws,2013-03-04 01:28:00,
2013-03-04 01:33:00,35.2,25.0,30.29,NW,315,3.8,6.0,66,0.00,,,0.00,pywws,2013-03-04 01:33:00,
2013-03-04 01:38:00,35.2,25.0,30.30,NW,315,3.8,6.0,66,0.00,,,0.00,pywws,2013-03-04 01:38:00,
2013-03-04 01:43:00,34.9,24.7,30.30,SE,135,3.1,10.7,66,0.00,,,0.00,pywws,2013-03-04 01:43:00,
2013-03-04 01:48:00,34.9,24.3,30.30,NE,45,3.1,6.9,65,0.00,,,0.00,pywws,2013-03-04 01:48:00,
2013-03-04 01:53:00,34.7,24.5,30.30,North,0,6.9,14.5,66,0.00,,,0.00,pywws,2013-03-04 01:53:00,
2013-03-04 01:58:00,34.7,24.2,30.30,West,270,5.4,12.1,65,0.00,,,0.00,pywws,2013-03-04 01:58:00,
2013-03-04 02:03:00,34.5,24.4,30.30,SE,135,5.4,10.7,66,0.00,,,0.00,pywws,2013-03-04 02:03:00,
2013-03-04 02:08:00,36.5,26.2,30.29,NE,45,6.0,10.7,66,0.00,,,0.00,pywws,2013-03-04 02:08:00,
2013-03-04 02:13:00,34.5,24.4,30.30,NE,45,2.2,3.8,66,0.00,,,0.00,pywws,2013-03-04 02:13:00,
2013-03-04 02:18:00,34.7,24.5,30.30,NE,45,4.5,7.6,66,0.00,,,0.00,pywws,2013-03-04 02:18:00,
2013-03-04 02:23:00,34.3,24.2,30.30,NE,45,3.8,6.9,66,0.00,,,0.00,pywws,2013-03-04 02:23:00,
2013-03-04 02:28:00,34.7,24.5,30.30,NE,45,3.8,6.9,66,0.00,,,0.00,pywws,2013-03-04 02:28:00,
2013-03-04 02:33:00,34.7,24.5,30.30,NE,45,3.1,5.4,66,0.00,,,0.00,pywws,2013-03-04 02:33:00,
2013-03-04 02:38:00,34.5,24.4,30.30,NE,45,1.6,5.4,66,0.00,,,0.00,pywws,2013-03-04 02:38:00,
2013-03-04 02:43:00,34.3,24.2,30.30,West,270,1.6,4.5,66,0.00,,,0.00,pywws,2013-03-04 02:43:00,
2013-03-04 02:48:00,34.3,24.2,30.30,West,270,4.5,10.7,66,0.00,,,0.00,pywws,2013-03-04 02:48:00,
2013-03-04 02:53:00,34.3,23.8,30.30,North,0,3.8,7.6,65,0.00,,,0.00,pywws,2013-03-04 02:53:00,
2013-03-04 02:58:00,34.3,23.8,30.30,North,0,2.2,6.0,65,0.00,,,0.00,pywws,2013-03-04 02:58:00,
2013-03-04 03:03:00,34.3,23.8,30.30,NE,45,2.2,5.4,65,0.00,,,0.00,pywws,2013-03-04 03:03:00,
2013-03-04 03:08:00,34.3,24.2,30.30,West,270,2.2,6.0,66,0.00,,,0.00,pywws,2013-03-04 03:08:00,
2013-03-04 03:13:00,34.3,24.2,30.29,NW,315,1.6,4.5,66,0.00,,,0.00,pywws,2013-03-04 03:13:00,
2013-03-04 03:18:00,34.3,23.8,30.29,North,-999,2.2,4.5,65,0.00,,,0.00,pywws,2013-03-04 03:18:00,
2013-03-04 03:23:00,34.3,23.8,30.29,North,0,2.2,5.4,65,0.00,,,0.00,pywws,2013-03-04 03:23:00,
2013-03-04 03:28:00,34.2,23.6,30.29,North,0,3.8,8.3,65,0.00,,,0.00,pywws,2013-03-04 03:28:00,
2013-03-04 03:33:00,34.2,23.6,30.29,NE,45,4.5,9.2,65,0.00,,,0.00,pywws,2013-03-04 03:33:00,
2013-03-04 03:38:00,34.2,23.6,30.29,NE,45,4.5,9.2,65,0.00,,,0.00,pywws,2013-03-04 03:38:00,
2013-03-04 03:43:00,34.2,23.6,30.29,SE,135,4.5,10.7,65,0.00,,,0.00,pywws,2013-03-04 03:43:00,
2013-03-04 03:48:00,34.2,23.6,30.29,WNW,292,2.2,6.9,65,0.00,,,0.00,pywws,2013-03-04 03:48:00,
2013-03-04 03:53:00,34.2,23.6,30.29,North,0,2.2,5.4,65,0.00,,,0.00,pywws,2013-03-04 03:53:00,
2013-03-04 03:58:00,34.3,23.8,30.29,North,0,1.6,3.1,65,0.00,,,0.00,pywws,2013-03-04 03:58:00,
2013-03-04 04:03:00,34.2,23.6,30.29,South,180,2.2,7.6,65,0.00,,,0.00,pywws,2013-03-04 04:03:00,
2013-03-04 04:08:00,34.2,23.6,30.29,SW,225,3.1,6.9,65,0.00,,,0.00,pywws,2013-03-04 04:08:00,
2013-03-04 04:13:00,34.3,23.8,30.29,North,-999,2.2,4.5,65,0.00,,,0.00,pywws,2013-03-04 04:13:00,
2013-03-04 04:18:00,34.3,23.8,30.28,SE,135,1.6,3.8,65,0.00,,,0.00,pywws,2013-03-04 04:18:00,
2013-03-04 04:23:00,34.2,24.0,30.28,NE,45,2.2,4.5,66,0.00,,,0.00,pywws,2013-03-04 04:23:00,
2013-03-04 04:28:00,34.2,23.6,30.28,North,-999,0.7,2.2,65,0.00,,,0.00,pywws,2013-03-04 04:28:00,
2013-03-04 04:33:00,34.3,24.2,30.28,West,270,3.1,6.9,66,0.00,,,0.00,pywws,2013-03-04 04:33:00,
2013-03-04 04:38:00,34.3,24.2,30.28,NE,45,1.6,5.4,66,0.00,,,0.00,pywws,2013-03-04 04:38:00,
2013-03-04 04:43:00,34.2,23.6,30.28,NE,45,5.4,11.4,65,0.00,,,0.00,pywws,2013-03-04 04:43:00,
2013-03-04 04:48:00,34.2,23.3,30.28,NE,45,2.2,5.4,64,0.00,,,0.00,pywws,2013-03-04 04:48:00,
2013-03-04 04:53:00,34.2,23.3,30.28,NW,315,3.1,6.9,64,0.00,,,0.00,pywws,2013-03-04 04:53:00,
2013-03-04 04:58:00,34.2,23.3,30.28,NE,45,3.1,5.4,64,0.00,,,0.00,pywws,2013-03-04 04:58:00,
2013-03-04 05:03:00,34.2,23.3,30.28,NNW,338,3.8,7.6,64,0.00,,,0.00,pywws,2013-03-04 05:03:00,
2013-03-04 05:08:00,34.2,23.3,30.28,NE,45,3.8,7.6,64,0.00,,,0.00,pywws,2013-03-04 05:08:00,
2013-03-04 05:13:00,34.0,23.1,30.28,NE,45,3.1,6.0,64,0.00,,,0.00,pywws,2013-03-04 05:13:00,
2013-03-04 05:18:00,34.0,22.7,30.28,SE,135,3.1,6.0,63,0.00,,,0.00,pywws,2013-03-04 05:18:00,
2013-03-04 05:23:00,34.0,22.7,30.27,North,0,2.2,6.0,63,0.00,,,0.00,pywws,2013-03-04 05:23:00,
2013-03-04 05:28:00,33.8,22.6,30.28,North,0,1.6,3.8,63,0.00,,,0.00,pywws,2013-03-04 05:28:00,
2013-03-04 05:33:00,33.8,22.9,30.28,NE,45,3.1,6.9,64,0.00,,,0.00,pywws,2013-03-04 05:33:00,
2013-03-04 05:38:00,33.8,22.9,30.28,NE,45,3.1,6.9,64,0.00,,,0.00,pywws,2013-03-04 05:38:00,
2013-03-04 05:43:00,33.8,22.9,30.28,SE,135,2.2,6.0,64,0.00,,,0.00,pywws,2013-03-04 05:43:00,
2013-03-04 05:48:00,34.0,23.1,30.28,WNW,292,3.1,6.0,64,0.00,,,0.00,pywws,2013-03-04 05:48:00,
2013-03-04 05:53:00,33.8,22.9,30.28,NE,45,3.1,9.2,64,0.00,,,0.00,pywws,2013-03-04 05:53:00,
2013-03-04 05:58:00,34.0,23.1,30.28,SE,135,3.8,8.3,64,0.00,,,0.00,pywws,2013-03-04 05:58:00,
2013-03-04 06:03:00,34.0,23.1,30.28,West,270,2.2,6.0,64,0.00,,,0.00,pywws,2013-03-04 06:03:00,
2013-03-04 06:08:00,34.0,23.1,30.28,WNW,292,2.2,5.4,64,0.00,,,0.00,pywws,2013-03-04 06:08:00,
2013-03-04 06:13:00,34.0,23.5,30.28,SE,135,2.2,4.5,65,0.00,,,0.00,pywws,2013-03-04 06:13:00,
2013-03-04 06:18:00,34.0,23.1,30.28,South,180,3.8,9.8,64,0.00,,,0.00,pywws,2013-03-04 06:18:00,
2013-03-04 06:23:00,34.0,23.1,30.28,NE,45,0.7,2.2,64,0.00,,,0.00,pywws,2013-03-04 06:23:00,
2013-03-04 06:28:00,34.0,23.1,30.28,NE,45,1.6,5.4,64,0.00,,,0.00,pywws,2013-03-04 06:28:00,
2013-03-04 06:33:00,34.2,23.3,30.28,SW,225,2.2,7.6,64,0.00,,,0.00,pywws,2013-03-04 06:33:00,
2013-03-04 06:38:00,34.2,23.3,30.28,SW,225,2.2,7.6,64,0.00,,,0.00,pywws,2013-03-04 06:38:00,
2013-03-04 06:43:00,34.0,22.7,30.28,North,0,3.8,9.2,63,0.00,,,0.00,pywws,2013-03-04 06:43:00,
2013-03-04 06:48:00,34.0,22.7,30.29,West,270,2.2,6.0,63,0.00,,,0.00,pywws,2013-03-04 06:48:00,
2013-03-04 06:53:00,34.0,22.7,30.28,North,0,3.1,8.3,63,0.00,,,0.00,pywws,2013-03-04 06:53:00,
2013-03-04 06:58:00,34.2,22.9,30.29,North,0,4.5,9.8,63,0.00,,,0.00,pywws,2013-03-04 06:58:00,
2013-03-04 07:03:00,34.2,22.9,30.29,NE,45,4.5,9.2,63,0.00,,,0.00,pywws,2013-03-04 07:03:00,
2013-03-04 07:08:00,34.0,22.7,30.28,SE,135,1.6,4.5,63,0.00,,,0.00,pywws,2013-03-04 07:08:00,
2013-03-04 07:13:00,34.0,22.7,30.29,NE,45,2.2,5.4,63,0.00,,,0.00,pywws,2013-03-04 07:13:00,
2013-03-04 07:18:00,34.0,22.7,30.29,WNW,292,2.2,6.0,63,0.00,,,0.00,pywws,2013-03-04 07:18:00,
2013-03-04 07:23:00,34.2,22.9,30.29,NNE,22,3.1,6.9,63,0.00,,,0.00,pywws,2013-03-04 07:23:00,
2013-03-04 07:28:00,34.0,22.7,30.29,SE,135,2.2,3.8,63,0.00,,,0.00,pywws,2013-03-04 07:28:00,
2013-03-04 07:33:00,34.2,22.5,30.29,NE,45,2.2,5.4,62,0.00,,,0.00,pywws,2013-03-04 07:33:00,
2013-03-04 07:38:00,34.2,22.5,30.29,NE,45,2.2,5.4,62,0.00,,,0.00,pywws,2013-03-04 07:38:00,
2013-03-04 07:43:00,34.2,22.9,30.29,SE,135,1.6,3.1,63,0.00,,,0.00,pywws,2013-03-04 07:43:00,
2013-03-04 07:48:00,34.3,23.4,30.29,West,270,0.7,5.4,64,0.00,,,0.00,pywws,2013-03-04 07:48:00,
2013-03-04 07:53:00,34.2,23.3,30.29,North,0,1.6,5.4,64,0.00,,,0.00,pywws,2013-03-04 07:53:00,
2013-03-04 07:58:00,34.3,23.4,30.29,North,0,1.6,4.5,64,0.00,,,0.00,pywws,2013-03-04 07:58:00,
2013-03-04 08:03:00,34.2,22.5,30.29,West,270,4.5,8.3,62,0.00,,,0.00,pywws,2013-03-04 08:03:00,
2013-03-04 08:08:00,34.5,22.9,30.29,South,180,2.2,4.5,62,0.00,,,0.00,pywws,2013-03-04 08:08:00,
2013-03-04 08:13:00,34.5,23.2,30.29,WNW,292,3.1,9.2,63,0.00,,,0.00,pywws,2013-03-04 08:13:00,
2013-03-04 08:18:00,34.5,23.2,30.30,SE,135,3.8,7.6,63,0.00,,,0.00,pywws,2013-03-04 08:18:00,
2013-03-04 08:23:00,34.5,23.2,30.29,NE,45,1.6,3.1,63,0.00,,,0.00,pywws,2013-03-04 08:23:00,
2013-03-04 08:28:00,34.3,23.1,30.29,NW,315,3.8,7.6,63,0.00,,,0.00,pywws,2013-03-04 08:28:00,
2013-03-04 08:33:00,38.7,27.2,30.29,North,-999,3.8,9.2,63,0.00,,,0.00,pywws,2013-03-04 08:33:00,
2013-03-04 08:38:00,38.7,27.2,30.29,North,-999,3.8,9.2,63,0.00,,,0.00,pywws,2013-03-04 08:38:00,
2013-03-04 08:43:00,34.3,23.1,30.29,North,0,3.1,6.9,63,0.00,,,0.00,pywws,2013-03-04 08:43:00,
2013-03-04 08:48:00,34.7,23.0,30.30,NE,45,2.2,5.4,62,0.00,,,0.00,pywws,2013-03-04 08:48:00,
2013-03-04 08:53:00,34.7,23.0,30.29,NW,315,3.1,6.9,62,0.00,,,0.00,pywws,2013-03-04 08:53:00,
2013-03-04 08:58:00,34.7,23.0,30.29,NE,45,4.5,7.6,62,0.00,,,0.00,pywws,2013-03-04 08:58:00,
2013-03-04 09:03:00,34.9,23.2,30.30,NE,45,2.2,6.0,62,0.00,,,0.00,pywws,2013-03-04 09:03:00,
2013-03-04 09:08:00,34.7,23.4,30.29,West,270,2.2,5.4,63,0.00,,,0.00,pywws,2013-03-04 09:08:00,
2013-03-04 09:13:00,34.9,23.6,30.29,NE,45,2.2,4.5,63,0.00,,,0.00,pywws,2013-03-04 09:13:00,
2013-03-04 09:18:00,35.1,23.8,30.29,North,0,3.8,5.4,63,0.00,,,0.00,pywws,2013-03-04 09:18:00,
2013-03-04 09:23:00,34.9,23.6,30.29,NE,45,4.5,7.6,63,0.00,,,0.00,pywws,2013-03-04 09:23:00,
2013-03-04 09:28:00,35.2,23.9,30.29,NE,45,4.5,10.7,63,0.00,,,0.00,pywws,2013-03-04 09:28:00,
2013-03-04 09:33:00,35.1,23.8,30.29,SE,135,3.1,5.4,63,0.00,,,0.00,pywws,2013-03-04 09:33:00,
2013-03-04 09:38:00,35.1,23.8,30.29,SE,135,3.1,5.4,63,0.00,,,0.00,pywws,2013-03-04 09:38:00,
2013-03-04 09:43:00,34.9,23.6,30.29,NE,45,2.2,4.5,63,0.00,,,0.00,pywws,2013-03-04 09:43:00,
2013-03-04 09:48:00,34.7,23.0,30.29,North,0,4.5,11.4,62,0.00,,,0.00,pywws,2013-03-04 09:48:00,
2013-03-04 09:53:00,34.9,22.4,30.30,NE,45,5.4,9.8,60,0.00,,,0.00,pywws,2013-03-04 09:53:00,
2013-03-04 09:58:00,34.9,21.6,30.29,SE,135,2.2,6.9,58,0.00,,,0.00,pywws,2013-03-04 09:58:00,
2013-03-04 10:03:00,34.9,21.6,30.29,NE,45,3.1,6.9,58,0.00,,,0.00,pywws,2013-03-04 10:03:00,
2013-03-04 10:08:00,35.2,22.0,30.29,NW,315,1.6,3.8,58,0.00,,,0.00,pywws,2013-03-04 10:08:00,
2013-03-04 10:13:00,35.4,21.7,30.29,NE,45,3.1,7.6,57,0.00,,,0.00,pywws,2013-03-04 10:13:00,
2013-03-04 10:18:00,35.4,21.7,30.29,NE,45,3.1,5.4,57,0.00,,,0.00,pywws,2013-03-04 10:18:00,
2013-03-04 10:23:00,35.4,21.7,30.29,SE,135,3.8,7.6,57,0.00,,,0.00,pywws,2013-03-04 10:23:00,
2013-03-04 10:28:00,35.4,22.1,30.29,NE,45,3.1,6.9,58,0.00,,,0.00,pywws,2013-03-04 10:28:00,
2013-03-04 10:33:00,35.4,22.1,30.29,North,0,3.1,6.0,58,0.00,,,0.00,pywws,2013-03-04 10:33:00,
2013-03-04 10:38:00,35.4,22.1,30.29,North,0,3.1,6.0,58,0.00,,,0.00,pywws,2013-03-04 10:38:00,
2013-03-04 10:43:00,35.4,22.5,30.29,West,270,3.8,7.6,59,0.00,,,0.00,pywws,2013-03-04 10:43:00,
2013-03-04 10:48:00,35.4,22.5,30.29,NE,45,2.2,5.4,59,0.00,,,0.00,pywws,2013-03-04 10:48:00,
2013-03-04 10:53:00,35.2,22.4,30.29,NW,315,4.5,7.6,59,0.00,,,0.00,pywws,2013-03-04 10:53:00,
2013-03-04 10:58:00,35.4,22.9,30.29,NE,45,3.8,9.2,60,0.00,,,0.00,pywws,2013-03-04 10:58:00,
2013-03-04 11:03:00,35.2,22.8,30.29,NE,45,2.2,6.0,60,0.00,,,0.00,pywws,2013-03-04 11:03:00,
2013-03-04 11:08:00,35.4,22.9,30.29,NE,45,3.1,6.9,60,0.00,,,0.00,pywws,2013-03-04 11:08:00,
2013-03-04 11:13:00,35.4,22.9,30.29,North,0,3.8,8.3,60,0.00,,,0.00,pywws,2013-03-04 11:13:00,
2013-03-04 11:18:00,35.1,22.2,30.29,West,270,5.4,10.7,59,0.00,,,0.00,pywws,2013-03-04 11:18:00,
2013-03-04 11:23:00,41.2,27.5,30.29,SE,135,5.4,10.7,58,0.00,,,0.00,pywws,2013-03-04 11:23:00,
2013-03-04 11:28:00,42.8,29.1,30.29,NW,315,4.5,6.9,58,0.00,,,0.00,pywws,2013-03-04 11:28:00,
2013-03-04 11:33:00,35.4,22.5,30.29,NE,45,2.2,4.5,59,0.00,,,0.00,pywws,2013-03-04 11:33:00,
2013-03-04 11:38:00,35.4,22.5,30.30,NE,45,2.2,4.5,59,0.00,,,0.00,pywws,2013-03-04 11:38:00,
2013-03-04 11:43:00,35.6,22.3,30.29,North,0,3.1,6.0,58,0.00,,,0.00,pywws,2013-03-04 11:43:00,
2013-03-04 11:48:00,35.8,22.1,30.29,WNW,292,3.8,8.3,57,0.00,,,0.00,pywws,2013-03-04 11:48:00,
2013-03-04 11:53:00,35.6,21.5,30.29,NE,45,4.5,9.2,56,0.00,,,0.00,pywws,2013-03-04 11:53:00,
2013-03-04 11:58:00,35.6,21.5,30.29,North,-999,3.1,7.6,56,0.00,,,0.00,pywws,2013-03-04 11:58:00,
2013-03-04 12:03:00,35.6,21.9,30.29,NW,315,3.1,6.0,57,0.00,,,0.00,pywws,2013-03-04 12:03:00,
2013-03-04 12:08:00,35.8,21.6,30.29,NW,315,3.8,8.3,56,0.00,,,0.00,pywws,2013-03-04 12:08:00,
2013-03-04 12:13:00,36.0,21.8,30.29,West,270,4.5,10.7,56,0.00,,,0.00,pywws,2013-03-04 12:13:00,
2013-03-04 12:18:00,35.6,21.5,30.29,North,0,2.2,5.4,56,0.00,,,0.00,pywws,2013-03-04 12:18:00,
2013-03-04 12:23:00,35.8,22.1,30.29,NE,45,1.6,5.4,57,0.00,,,0.00,pywws,2013-03-04 12:23:00,
2013-03-04 12:28:00,36.0,22.2,30.29,NE,45,2.2,7.6,57,0.00,,,0.00,pywws,2013-03-04 12:28:00,
2013-03-04 12:33:00,41.5,27.5,30.29,SE,135,3.1,5.4,57,0.00,,,0.00,pywws,2013-03-04 12:33:00,
2013-03-04 12:38:00,41.5,27.5,30.28,SE,135,3.1,5.4,57,0.00,,,0.00,pywws,2013-03-04 12:38:00,
2013-03-04 12:43:00,35.8,22.5,30.28,NE,45,3.1,5.4,58,0.00,,,0.00,pywws,2013-03-04 12:43:00,
2013-03-04 12:48:00,35.8,22.9,30.28,North,0,3.1,5.4,59,0.00,,,0.00,pywws,2013-03-04 12:48:00,
2013-03-04 12:53:00,35.8,22.5,30.27,SW,225,4.5,8.3,58,0.00,,,0.00,pywws,2013-03-04 12:53:00,
2013-03-04 12:58:00,35.8,22.9,30.27,SE,135,5.4,9.2,59,0.00,,,0.00,pywws,2013-03-04 12:58:00,
2013-03-04 13:03:00,35.8,22.5,30.27,SE,135,3.1,8.3,58,0.00,,,0.00,pywws,2013-03-04 13:03:00,
2013-03-04 13:08:00,35.8,22.5,30.27,NE,45,2.2,5.4,58,0.00,,,0.00,pywws,2013-03-04 13:08:00,
2013-03-04 13:13:00,35.8,22.5,30.27,NE,45,3.8,9.2,58,0.00,,,0.00,pywws,2013-03-04 13:13:00,
2013-03-04 13:18:00,35.6,22.7,30.27,West,270,1.6,5.4,59,0.00,,,0.00,pywws,2013-03-04 13:18:00,
2013-03-04 13:23:00,35.8,22.9,30.27,NNE,22,0.7,3.8,59,0.00,,,0.00,pywws,2013-03-04 13:23:00,
2013-03-04 13:28:00,36.0,23.0,30.27,NE,45,2.2,6.0,59,0.00,,,0.00,pywws,2013-03-04 13:28:00,
2013-03-04 13:33:00,36.0,23.0,30.26,SE,135,3.8,6.9,59,0.00,,,0.00,pywws,2013-03-04 13:33:00,
2013-03-04 13:38:00,36.0,23.0,30.26,SE,135,3.8,6.9,59,0.00,,,0.00,pywws,2013-03-04 13:38:00,
2013-03-04 13:43:00,35.8,22.9,30.26,North,0,3.8,8.3,59,0.00,,,0.00,pywws,2013-03-04 13:43:00,
2013-03-04 13:48:00,35.8,22.9,30.26,NE,45,2.2,5.4,59,0.00,,,0.00,pywws,2013-03-04 13:48:00,
2013-03-04 13:53:00,35.6,22.7,30.26,NNE,22,3.8,6.9,59,0.00,,,0.00,pywws,2013-03-04 13:53:00,
2013-03-04 13:58:00,35.4,22.1,30.26,NW,315,5.4,8.3,58,0.00,,,0.00,pywws,2013-03-04 13:58:00,
2013-03-04 14:03:00,35.6,22.3,30.26,West,270,6.9,12.1,58,0.00,,,0.00,pywws,2013-03-04 14:03:00,
2013-03-04 14:08:00,35.4,22.5,30.26,WNW,292,3.1,6.9,59,0.00,,,0.00,pywws,2013-03-04 14:08:00,
2013-03-04 14:13:00,35.6,22.3,30.25,NE,45,5.4,10.7,58,0.00,,,0.00,pywws,2013-03-04 14:13:00,
2013-03-04 14:18:00,35.4,22.1,30.26,NW,315,3.1,10.7,58,0.00,,,0.00,pywws,2013-03-04 14:18:00,
2013-03-04 14:23:00,35.2,22.0,30.25,North,-999,3.8,6.9,58,0.00,,,0.00,pywws,2013-03-04 14:23:00,
2013-03-04 14:28:00,35.4,22.5,30.25,West,270,2.2,4.5,59,0.00,,,0.00,pywws,2013-03-04 14:28:00,
2013-03-04 14:33:00,35.6,22.7,30.25,NW,315,2.2,5.4,59,0.00,,,0.00,pywws,2013-03-04 14:33:00,
2013-03-04 14:38:00,35.6,22.7,30.25,NW,315,2.2,5.4,59,0.00,,,0.00,pywws,2013-03-04 14:38:00,
2013-03-04 14:43:00,35.4,22.5,30.25,West,270,2.2,5.4,59,0.00,,,0.00,pywws,2013-03-04 14:43:00,
2013-03-04 14:48:00,35.4,22.9,30.25,NE,45,3.1,7.6,60,0.00,,,0.00,pywws,2013-03-04 14:48:00,
2013-03-04 14:53:00,35.4,23.3,30.25,NE,45,3.1,6.0,61,0.00,,,0.00,pywws,2013-03-04 14:53:00,
2013-03-04 14:58:00,35.4,23.3,30.25,NE,45,3.1,6.9,61,0.00,,,0.00,pywws,2013-03-04 14:58:00,
2013-03-04 15:03:00,35.2,23.2,30.25,North,0,3.8,6.9,61,0.00,,,0.00,pywws,2013-03-04 15:03:00,
2013-03-04 15:08:00,35.2,22.8,30.25,North,0,4.5,8.3,60,0.00,,,0.00,pywws,2013-03-04 15:08:00,
2013-03-04 15:13:00,35.1,22.2,30.25,NW,315,3.8,6.9,59,0.00,,,0.00,pywws,2013-03-04 15:13:00,
2013-03-04 15:18:00,35.1,22.2,30.25,North,0,1.6,4.5,59,0.00,,,0.00,pywws,2013-03-04 15:18:00,
2013-03-04 15:23:00,35.2,22.4,30.25,NE,45,3.1,6.0,59,0.00,,,0.00,pywws,2013-03-04 15:23:00,
2013-03-04 15:28:00,35.2,22.4,30.25,North,0,0.7,2.2,59,0.00,,,0.00,pywws,2013-03-04 15:28:00,
2013-03-04 15:33:00,35.4,22.5,30.24,NW,315,0.7,2.2,59,0.00,,,0.00,pywws,2013-03-04 15:33:00,
2013-03-04 15:38:00,35.4,22.5,30.24,NW,315,0.7,2.2,59,0.00,,,0.00,pywws,2013-03-04 15:38:00,
2013-03-04 15:43:00,35.4,21.3,30.25,NE,45,2.2,4.5,56,0.00,,,0.00,pywws,2013-03-04 15:43:00,
2013-03-04 15:48:00,35.2,21.1,30.25,NW,315,3.8,9.8,56,0.00,,,0.00,pywws,2013-03-04 15:48:00,
2013-03-04 15:53:00,35.2,20.7,30.25,WSW,248,2.2,6.0,55,0.00,,,0.00,pywws,2013-03-04 15:53:00,
2013-03-04 15:58:00,35.2,21.1,30.24,SE,135,3.1,6.0,56,0.00,,,0.00,pywws,2013-03-04 15:58:00,
2013-03-04 16:03:00,35.2,21.1,30.24,NW,315,2.2,5.4,56,0.00,,,0.00,pywws,2013-03-04 16:03:00,
2013-03-04 16:08:00,35.2,21.1,30.24,West,270,3.8,8.3,56,0.00,,,0.00,pywws,2013-03-04 16:08:00,
2013-03-04 16:13:00,35.2,21.1,30.24,West,270,3.1,7.6,56,0.00,,,0.00,pywws,2013-03-04 16:13:00,
2013-03-04 16:18:00,35.1,21.0,30.24,NE,45,1.6,4.5,56,0.00,,,0.00,pywws,2013-03-04 16:18:00,
2013-03-04 16:23:00,34.9,20.8,30.24,NW,315,1.6,5.4,56,0.00,,,0.00,pywws,2013-03-04 16:23:00,
2013-03-04 16:28:00,34.9,20.4,30.24,North,-999,5.4,9.8,55,0.00,,,0.00,pywws,2013-03-04 16:28:00,
2013-03-04 16:33:00,34.9,20.4,30.24,North,0,3.1,6.0,55,0.00,,,0.00,pywws,2013-03-04 16:33:00,
2013-03-04 16:38:00,34.9,20.4,30.24,North,0,3.1,6.0,55,0.00,,,0.00,pywws,2013-03-04 16:38:00,
2013-03-04 16:43:00,34.9,19.9,30.24,NW,315,5.4,9.8,54,0.00,,,0.00,pywws,2013-03-04 16:43:00,
2013-03-04 16:48:00,34.5,19.6,30.24,North,-999,4.5,9.2,54,0.00,,,0.00,pywws,2013-03-04 16:48:00,
2013-03-04 16:53:00,34.7,20.2,30.24,NE,45,1.6,4.5,55,0.00,,,0.00,pywws,2013-03-04 16:53:00,
2013-03-04 16:58:00,39.6,24.7,30.24,NE,45,3.8,7.6,55,0.00,,,0.00,pywws,2013-03-04 16:58:00,
2013-03-04 17:03:00,35.1,20.5,30.24,NNE,22,3.1,6.9,55,0.00,,,0.00,pywws,2013-03-04 17:03:00,
2013-03-04 17:08:00,34.5,19.6,30.24,SE,135,4.5,8.3,54,0.00,,,0.00,pywws,2013-03-04 17:08:00,
2013-03-04 17:13:00,34.5,19.6,30.24,North,0,4.5,9.2,54,0.00,,,0.00,pywws,2013-03-04 17:13:00,
2013-03-04 17:18:00,34.5,20.0,30.24,NE,45,3.8,7.6,55,0.00,,,0.00,pywws,2013-03-04 17:18:00,
2013-03-04 17:23:00,34.3,19.9,30.24,SW,225,3.8,8.3,55,0.00,,,0.00,pywws,2013-03-04 17:23:00,
2013-03-04 17:28:00,34.5,20.0,30.24,South,180,3.1,5.4,55,0.00,,,0.00,pywws,2013-03-04 17:28:00,
2013-03-04 17:33:00,34.5,20.0,30.23,SE,135,2.2,5.4,55,0.00,,,0.00,pywws,2013-03-04 17:33:00,
2013-03-04 17:38:00,34.5,20.0,30.24,SE,135,2.2,5.4,55,0.00,,,0.00,pywws,2013-03-04 17:38:00,
2013-03-04 17:43:00,34.3,20.3,30.24,West,270,1.6,5.4,56,0.00,,,0.00,pywws,2013-03-04 17:43:00,
2013-03-04 17:48:00,34.2,20.1,30.24,NE,45,7.6,15.2,56,0.00,,,0.00,pywws,2013-03-04 17:48:00,
2013-03-04 17:53:00,34.2,20.1,30.24,West,270,4.5,8.3,56,0.00,,,0.00,pywws,2013-03-04 17:53:00,
2013-03-04 17:58:00,34.2,20.1,30.24,NW,315,0.7,3.8,56,0.00,,,0.00,pywws,2013-03-04 17:58:00,
2013-03-04 18:03:00,34.2,20.5,30.24,SE,135,2.2,5.4,57,0.00,,,0.00,pywws,2013-03-04 18:03:00,
2013-03-04 18:08:00,34.2,20.5,30.24,North,0,0.7,3.1,57,0.00,,,0.00,pywws,2013-03-04 18:08:00,
2013-03-04 18:13:00,34.2,20.5,30.24,North,0,2.2,8.3,57,0.00,,,0.00,pywws,2013-03-04 18:13:00,
2013-03-04 18:18:00,34.2,20.5,30.24,SE,135,1.6,6.0,57,0.00,,,0.00,pywws,2013-03-04 18:18:00,
2013-03-04 18:23:00,34.2,20.9,30.24,West,270,3.8,7.6,58,0.00,,,0.00,pywws,2013-03-04 18:23:00,
2013-03-04 18:28:00,34.0,20.4,30.24,NE,45,3.1,7.6,57,0.00,,,0.00,pywws,2013-03-04 18:28:00,
2013-03-04 18:33:00,34.0,20.4,30.24,NW,315,1.6,3.8,57,0.00,,,0.00,pywws,2013-03-04 18:33:00,
2013-03-04 18:38:00,34.0,20.4,30.24,NW,315,1.6,3.8,57,0.00,,,0.00,pywws,2013-03-04 18:38:00,
2013-03-04 18:43:00,34.0,20.8,30.24,SE,135,3.1,7.6,58,0.00,,,0.00,pywws,2013-03-04 18:43:00,
2013-03-04 18:48:00,34.3,21.1,30.24,North,0,1.6,3.8,58,0.00,,,0.00,pywws,2013-03-04 18:48:00,
2013-03-04 18:53:00,34.0,20.8,30.24,NW,315,1.6,4.5,58,0.00,,,0.00,pywws,2013-03-04 18:53:00,
2013-03-04 18:58:00,33.8,21.0,30.24,West,270,3.1,7.6,59,0.00,,,0.00,pywws,2013-03-04 18:58:00,
2013-03-04 19:03:00,36.3,23.8,30.24,North,0,1.6,3.8,60,0.00,,,0.00,pywws,2013-03-04 19:03:00,
2013-03-04 19:08:00,33.8,21.4,30.24,West,270,2.2,5.4,60,0.00,,,0.00,pywws,2013-03-04 19:08:00,
2013-03-04 19:13:00,33.6,21.2,30.24,North,-999,1.6,3.1,60,0.00,,,0.00,pywws,2013-03-04 19:13:00,
2013-03-04 19:18:00,33.8,21.0,30.24,NE,45,3.8,7.6,59,0.00,,,0.00,pywws,2013-03-04 19:18:00,
2013-03-04 19:23:00,33.8,21.4,30.24,NE,45,1.6,3.8,60,0.00,,,0.00,pywws,2013-03-04 19:23:00,
2013-03-04 19:28:00,33.6,21.2,30.24,North,-999,1.6,7.6,60,0.00,,,0.00,pywws,2013-03-04 19:28:00,
2013-03-04 19:33:00,33.4,21.1,30.24,NE,45,1.6,6.0,60,0.00,,,0.00,pywws,2013-03-04 19:33:00,
2013-03-04 19:38:00,33.4,21.1,30.24,NE,45,1.6,6.0,60,0.00,,,0.00,pywws,2013-03-04 19:38:00,
2013-03-04 19:43:00,33.6,20.8,30.24,West,270,6.0,12.1,59,0.00,,,0.00,pywws,2013-03-04 19:43:00,
2013-03-04 19:48:00,39.0,25.9,30.24,NE,45,2.2,6.0,59,0.00,,,0.00,pywws,2013-03-04 19:48:00,
2013-03-04 19:53:00,39.9,26.4,30.24,NW,315,3.8,7.6,58,0.00,,,0.00,pywws,2013-03-04 19:53:00,
2013-03-04 19:58:00,33.4,20.3,30.24,West,270,1.6,3.1,58,0.00,,,0.00,pywws,2013-03-04 19:58:00,
2013-03-04 20:03:00,33.3,20.1,30.24,NW,315,2.2,6.0,58,0.00,,,0.00,pywws,2013-03-04 20:03:00,
2013-03-04 20:08:00,36.0,22.2,30.24,North,0,1.6,6.0,57,0.00,,,0.00,pywws,2013-03-04 20:08:00,
2013-03-04 20:13:00,33.3,19.7,30.24,SE,135,4.5,9.8,57,0.00,,,0.00,pywws,2013-03-04 20:13:00,
2013-03-04 20:18:00,33.3,19.7,30.23,West,270,3.8,6.9,57,0.00,,,0.00,pywws,2013-03-04 20:18:00,
2013-03-04 20:23:00,33.3,19.7,30.24,NE,45,1.6,5.4,57,0.00,,,0.00,pywws,2013-03-04 20:23:00,
2013-03-04 20:28:00,33.3,19.3,30.24,SE,135,3.1,7.6,56,0.00,,,0.00,pywws,2013-03-04 20:28:00,
2013-03-04 20:33:00,33.3,19.7,30.23,SE,135,4.5,6.0,57,0.00,,,0.00,pywws,2013-03-04 20:33:00,
2013-03-04 20:38:00,33.3,19.7,30.23,SE,135,4.5,6.0,57,0.00,,,0.00,pywws,2013-03-04 20:38:00,
2013-03-04 20:43:00,33.3,19.7,30.23,WNW,292,1.6,4.5,57,0.00,,,0.00,pywws,2013-03-04 20:43:00,
2013-03-04 20:48:00,33.1,19.5,30.23,NE,45,4.5,6.0,57,0.00,,,0.00,pywws,2013-03-04 20:48:00,
2013-03-04 20:53:00,33.1,19.5,30.23,SE,135,3.1,5.4,57,0.00,,,0.00,pywws,2013-03-04 20:53:00,
2013-03-04 20:58:00,32.9,19.4,30.23,NE,45,3.1,7.6,57,0.00,,,0.00,pywws,2013-03-04 20:58:00,
2013-03-04 21:03:00,33.1,19.9,30.23,SE,135,2.2,6.9,58,0.00,,,0.00,pywws,2013-03-04 21:03:00,
2013-03-04 21:08:00,33.1,19.9,30.23,SE,135,3.1,8.3,58,0.00,,,0.00,pywws,2013-03-04 21:08:00,
2013-03-04 21:13:00,33.3,20.1,30.23,North,0,2.2,4.5,58,0.00,,,0.00,pywws,2013-03-04 21:13:00,
2013-03-04 21:18:00,33.1,19.5,30.23,West,270,2.2,6.0,57,0.00,,,0.00,pywws,2013-03-04 21:18:00,
2013-03-04 21:23:00,33.1,19.9,30.23,NW,315,3.1,5.4,58,0.00,,,0.00,pywws,2013-03-04 21:23:00,
2013-03-04 21:28:00,33.3,20.1,30.23,West,270,3.1,7.6,58,0.00,,,0.00,pywws,2013-03-04 21:28:00,
2013-03-04 21:33:00,33.1,19.9,30.22,NE,45,3.8,9.2,58,0.00,,,0.00,pywws,2013-03-04 21:33:00,
2013-03-04 21:38:00,33.1,19.9,30.23,NE,45,3.8,9.2,58,0.00,,,0.00,pywws,2013-03-04 21:38:00,
2013-03-04 21:43:00,33.1,19.9,30.22,NE,45,3.1,7.6,58,0.00,,,0.00,pywws,2013-03-04 21:43:00,
2013-03-04 21:48:00,32.9,19.8,30.22,North,0,3.1,8.3,58,0.00,,,0.00,pywws,2013-03-04 21:48:00,
2013-03-04 21:53:00,33.1,19.9,30.22,NE,45,3.1,6.0,58,0.00,,,0.00,pywws,2013-03-04 21:53:00,
2013-03-04 21:58:00,32.7,19.6,30.22,NE,45,3.1,7.6,58,0.00,,,0.00,pywws,2013-03-04 21:58:00,
2013-03-04 22:03:00,32.9,19.8,30.22,NE,45,1.6,6.0,58,0.00,,,0.00,pywws,2013-03-04 22:03:00,
2013-03-04 22:08:00,32.9,19.8,30.22,NW,315,2.2,6.9,58,0.00,,,0.00,pywws,2013-03-04 22:08:00,
2013-03-04 22:13:00,32.9,19.8,30.22,South,180,0.7,3.1,58,0.00,,,0.00,pywws,2013-03-04 22:13:00,
2013-03-04 22:18:00,32.9,19.8,30.22,NE,45,2.2,5.4,58,0.00,,,0.00,pywws,2013-03-04 22:18:00,
2013-03-04 22:23:00,32.9,19.8,30.22,West,270,0.7,3.1,58,0.00,,,0.00,pywws,2013-03-04 22:23:00,
2013-03-04 22:28:00,33.1,19.9,30.22,NNE,22,2.2,4.5,58,0.00,,,0.00,pywws,2013-03-04 22:28:00,
2013-03-04 22:33:00,32.9,20.2,30.22,West,270,1.6,3.8,59,0.00,,,0.00,pywws,2013-03-04 22:33:00,
2013-03-04 22:38:00,32.9,20.2,30.22,West,270,1.6,3.8,59,0.00,,,0.00,pywws,2013-03-04 22:38:00,
2013-03-04 22:43:00,33.1,20.3,30.22,NE,45,3.8,6.9,59,0.00,,,0.00,pywws,2013-03-04 22:43:00,
2013-03-04 22:48:00,33.1,20.3,30.22,NE,45,3.8,7.6,59,0.00,,,0.00,pywws,2013-03-04 22:48:00,
2013-03-04 22:53:00,33.3,20.5,30.22,NE,45,2.2,5.4,59,0.00,,,0.00,pywws,2013-03-04 22:53:00,
2013-03-04 22:58:00,32.9,20.2,30.22,SE,135,0.7,3.1,59,0.00,,,0.00,pywws,2013-03-04 22:58:00,
2013-03-04 23:03:00,32.9,20.2,30.22,WNW,292,3.8,9.2,59,0.00,,,0.00,pywws,2013-03-04 23:03:00,
2013-03-04 23:08:00,33.1,20.3,30.22,NE,45,0.7,2.2,59,0.00,,,0.00,pywws,2013-03-04 23:08:00,
2013-03-04 23:13:00,32.9,20.2,30.22,West,270,3.8,8.3,59,0.00,,,0.00,pywws,2013-03-04 23:13:00,
2013-03-04 23:18:00,32.9,19.8,30.22,NE,45,3.1,8.3,58,0.00,,,0.00,pywws,2013-03-04 23:18:00,
2013-03-04 23:23:00,33.1,19.5,30.22,SE,135,3.8,9.8,57,0.00,,,0.00,pywws,2013-03-04 23:23:00,
2013-03-04 23:28:00,33.1,19.5,30.22,NE,45,2.2,3.8,57,0.00,,,0.00,pywws,2013-03-04 23:28:00,
2013-03-04 23:33:00,32.9,19.8,30.21,NE,45,2.2,4.5,58,0.00,,,0.00,pywws,2013-03-04 23:33:00,
2013-03-04 23:38:00,32.9,19.8,30.22,NE,45,2.2,4.5,58,0.00,,,0.00,pywws,2013-03-04 23:38:00,
2013-03-04 23:43:00,33.1,19.9,30.21,NE,45,3.1,6.0,58,0.00,,,0.00,pywws,2013-03-04 23:43:00,
2013-03-04 23:48:00,33.1,19.5,30.21,South,180,2.2,4.5,57,0.00,,,0.00,pywws,2013-03-04 23:48:00,
2013-03-04 23:53:00,33.1,19.9,30.21,NE,45,2.2,7.6,58,0.00,,,0.00,pywws,2013-03-04 23:53:00,
2013-03-04 23:58:00,32.9,19.8,30.21,South,180,1.6,5.4,58,0.00,,,0.00,pywws,2013-03-04 23:58:00,